New Ulm, MN

2:55 PM CDT on September 24, 2017 (GMT -0500)
New Ulm Municipal

Weather History for KULM - September, 2012

Change the Weather History Date:

Friday, September 21, 2012

  Actual Average Record
Temperature  
Mean Temperature 57 °F -  
Max Temperature 66 °F 68 °F 104 °F (1997)
Min Temperature 48 °F 45 °F 30 °F (1999)
Degree Days  
Heating Degree Days 8    
Growing Degree Days 7 (Base 50)    
Moisture  
Dew Point 39 °F    
Average Humidity 53    
Maximum Humidity 82    
Minimum Humidity 28    
Precipitation  
Precipitation 0.00 in - - ()
Sea Level Pressure  
Sea Level Pressure 29.86 in    
Wind  
Wind Speed 6 mph (NW)    
Max Wind Speed 20 mph    
Max Gust Speed 30 mph    
Visibility 10 miles    
Events Rain    
Averages and records for this station are not official NWS values.
T = Trace of Precipitation, MM = Missing Value Source: NWS Daily Summary

Daily Weather History Graph

Daily Weather History Graph

Search for Another Location

Airport or City:

Trip Planner

Search our weather history database for the weather conditions in past years. The results will help you decide how hot, cold, wet, or windy it might be!

Date:

Astronomy

Sep. 21, 2012 Rise Set
Actual Time 7:04 AM CDT 7:16 PM CDT
Civil Twilight 6:35 AM CDT 7:45 PM CDT
Nautical Twilight 6:01 AM CDT 8:19 PM CDT
Astronomical Twilight 5:26 AM CDT 8:54 PM CDT
Moon 1:40 PM CDT (9/21) 11:04 PM CDT (9/21)
Length of Visible Light 13h 09m
Length of Day
12h 11m
Waxing Crescent, 37% of the Moon is Illuminated
Sep 21
Waxing Crescent
Sep 22
First Quarter
Sep 29
Full
Oct 8
Last Quarter
Oct 15
New

Hourly Weather History & Observations

Time (CDT) Temp. Dew Point Humidity Pressure Visibility Wind Dir Wind Speed Gust Speed Precip Events Conditions
12:12 AM 53.6 °F 35.6 °F 51% 29.88 in 10.0 mi WSW 4.6 mph - N/A   Scattered Clouds
12:33 AM 55.4 °F 37.4 °F 51% 29.88 in 10.0 mi West 6.9 mph - N/A   Mostly Cloudy
12:53 AM 55.4 °F 39.2 °F 54% 29.89 in 10.0 mi NW 6.9 mph - N/A Rain Light Rain
1:12 AM 55.4 °F 37.4 °F 51% 29.89 in 10.0 mi North 6.9 mph - N/A Rain Light Rain
1:33 AM 57.2 °F 39.2 °F 51% 29.90 in 10.0 mi North 9.2 mph - N/A Rain Light Rain
1:53 AM 55.4 °F 39.2 °F 54% 29.89 in 10.0 mi NW 5.8 mph - N/A Rain Light Rain
2:12 AM 55.4 °F 41.0 °F 58% 29.88 in 10.0 mi NNW 9.2 mph - N/A   Overcast
2:33 AM 55.4 °F 41.0 °F 58% 29.88 in 10.0 mi NNW 5.8 mph - N/A   Overcast
2:53 AM 55.4 °F 42.8 °F 63% 29.88 in 10.0 mi Calm Calm - N/A   Overcast
3:12 AM 53.6 °F 44.6 °F 72% 29.87 in 10.0 mi Calm Calm - N/A Rain Light Rain
3:33 AM 53.6 °F 44.6 °F 72% 29.87 in 10.0 mi SSW 4.6 mph - N/A   Light Drizzle
3:53 AM 53.6 °F 44.6 °F 72% 29.87 in 10.0 mi SSW 5.8 mph - N/A   Mostly Cloudy
4:13 AM 53.6 °F 44.6 °F 72% 29.88 in 10.0 mi Calm Calm - N/A   Overcast
4:33 AM 53.6 °F 44.6 °F 72% 29.87 in 10.0 mi Calm Calm - N/A Rain Light Rain
4:53 AM 53.6 °F 44.6 °F 72% 29.86 in 10.0 mi East 4.6 mph - N/A   Mostly Cloudy
5:13 AM 51.8 °F 44.6 °F 76% 29.86 in 10.0 mi Calm Calm - N/A   Overcast
5:33 AM 53.6 °F 44.6 °F 72% - 10.0 mi East 3.5 mph - N/A   Scattered Clouds
5:53 AM 53.6 °F 44.6 °F 72% 29.86 in 10.0 mi Calm Calm - N/A   Scattered Clouds
6:13 AM 51.8 °F 46.4 °F 82% 29.85 in 10.0 mi SE 3.5 mph - N/A   Scattered Clouds
6:33 AM 51.8 °F 46.4 °F 82% 29.84 in 10.0 mi SE 4.6 mph - N/A   Clear
6:52 AM 51.8 °F 44.6 °F 76% 29.83 in 10.0 mi SE 3.5 mph - N/A   Clear
7:13 AM 51.8 °F 44.6 °F 76% 29.83 in 10.0 mi SSE 5.8 mph - N/A   Scattered Clouds
7:33 AM 51.8 °F 44.6 °F 76% 29.82 in 10.0 mi South 6.9 mph - N/A   Scattered Clouds
7:52 AM 51.8 °F 44.6 °F 76% 29.82 in 10.0 mi SSW 8.1 mph - N/A   Clear
8:13 AM 51.8 °F 44.6 °F 76% 29.83 in 10.0 mi SSW 3.5 mph - N/A   Clear
8:33 AM 53.6 °F 44.6 °F 72% 29.84 in 10.0 mi Calm Calm - N/A   Clear
8:52 AM 53.6 °F 44.6 °F 72% 29.85 in 10.0 mi Calm Calm - N/A   Clear
9:13 AM 55.4 °F 44.6 °F 67% 29.86 in 10.0 mi Calm Calm - N/A   Clear
9:33 AM 55.4 °F 44.6 °F 67% 29.87 in 10.0 mi North 3.5 mph - N/A   Clear
9:52 AM 57.2 °F 44.6 °F 63% 29.87 in 10.0 mi North 4.6 mph - N/A   Clear
10:13 AM 57.2 °F 44.6 °F 63% 29.87 in 10.0 mi NNW 3.5 mph - N/A   Mostly Cloudy
10:33 AM 60.8 °F 42.8 °F 52% 29.87 in 10.0 mi Calm Calm - N/A   Scattered Clouds
10:52 AM 60.8 °F 42.8 °F 52% 29.86 in 10.0 mi NW 5.8 mph - N/A   Scattered Clouds
11:13 AM 60.8 °F 42.8 °F 52% 29.86 in 10.0 mi North 6.9 mph - N/A   Scattered Clouds
11:33 AM 62.6 °F 39.2 °F 42% 29.86 in 10.0 mi Calm Calm - N/A   Scattered Clouds
11:52 AM 62.6 °F 41.0 °F 45% 29.86 in 10.0 mi Calm Calm - N/A   Clear
12:13 PM 62.6 °F 39.2 °F 42% 29.86 in 10.0 mi WNW 8.1 mph - N/A   Clear
12:33 PM 62.6 °F 39.2 °F 42% 29.86 in 10.0 mi NW 5.8 mph - N/A   Clear
12:53 PM 64.4 °F 39.2 °F 40% 29.85 in 10.0 mi NW 8.1 mph 16.1 mph N/A   Scattered Clouds
1:13 PM 62.6 °F 39.2 °F 42% 29.85 in 10.0 mi NW 8.1 mph - N/A   Mostly Cloudy
1:33 PM 62.6 °F 39.2 °F 42% 29.85 in 10.0 mi NNE 6.9 mph - N/A   Scattered Clouds
1:53 PM 64.4 °F 39.2 °F 40% 29.84 in 10.0 mi North 5.8 mph 17.3 mph N/A   Scattered Clouds
2:13 PM 64.4 °F 37.4 °F 37% 29.84 in 10.0 mi NW 11.5 mph 21.9 mph N/A   Scattered Clouds
2:33 PM 64.4 °F 37.4 °F 37% 29.83 in 10.0 mi NNW 11.5 mph 15.0 mph N/A   Scattered Clouds
2:52 PM 64.4 °F 37.4 °F 37% 29.83 in 10.0 mi NNW 10.4 mph 21.9 mph N/A   Scattered Clouds
3:13 PM 64.4 °F 37.4 °F 37% 29.83 in 10.0 mi NW 12.7 mph 16.1 mph N/A   Scattered Clouds
3:33 PM 64.4 °F 35.6 °F 34% 29.82 in 10.0 mi NNW 17.3 mph 24.2 mph N/A   Mostly Cloudy
3:58 PM 66.2 °F 35.6 °F 32% 29.82 in 10.0 mi NNW 18.4 mph 23.0 mph N/A   Scattered Clouds
4:13 PM 62.6 °F 35.6 °F 37% 29.83 in 10.0 mi NNW 11.5 mph 19.6 mph N/A   Scattered Clouds
4:33 PM 66.2 °F 35.6 °F 32% 29.82 in 10.0 mi NW 18.4 mph - N/A   Scattered Clouds
4:52 PM 64.4 °F 33.8 °F 32% 29.82 in 10.0 mi North 13.8 mph 19.6 mph N/A   Scattered Clouds
5:13 PM 64.4 °F 33.8 °F 32% 29.82 in 10.0 mi North 11.5 mph - N/A   Scattered Clouds
5:32 PM 64.4 °F 33.8 °F 32% 29.82 in 10.0 mi NNW 17.3 mph 21.9 mph N/A   Clear
5:53 PM 64.4 °F 33.8 °F 32% 29.83 in 10.0 mi NW 12.7 mph 21.9 mph N/A   Clear
6:13 PM 64.4 °F 30.2 °F 28% 29.83 in 10.0 mi NNW 16.1 mph - N/A   Clear
6:32 PM 62.6 °F 30.2 °F 30% 29.84 in 10.0 mi NNW 9.2 mph 17.3 mph N/A   Clear
6:53 PM 62.6 °F 30.2 °F 30% 29.85 in 10.0 mi NNW 9.2 mph - N/A   Scattered Clouds
7:13 PM 60.8 °F 30.2 °F 31% 29.85 in 10.0 mi North 5.8 mph - N/A   Scattered Clouds
7:32 PM 60.8 °F 30.2 °F 31% 29.85 in 10.0 mi NNW 5.8 mph - N/A   Scattered Clouds
7:53 PM 59.0 °F 30.2 °F 34% 29.85 in 10.0 mi Calm Calm - N/A   Mostly Cloudy
8:13 PM 57.2 °F 28.4 °F 33% 29.85 in 10.0 mi North 3.5 mph - N/A   Scattered Clouds
8:32 PM 55.4 °F 32.0 °F 41% 29.85 in 10.0 mi Calm Calm - N/A   Mostly Cloudy
8:53 PM 53.6 °F 35.6 °F 51% 29.85 in 10.0 mi WSW 4.6 mph - N/A   Mostly Cloudy
9:13 PM 53.6 °F 35.6 °F 51% 29.85 in 10.0 mi West 4.6 mph - N/A   Scattered Clouds
9:33 PM 50.0 °F 35.6 °F 58% 29.85 in 10.0 mi WSW 6.9 mph - N/A   Scattered Clouds
9:53 PM 50.0 °F 35.6 °F 58% 29.85 in 10.0 mi West 6.9 mph - N/A   Clear
10:13 PM 48.2 °F 35.6 °F 62% 29.85 in 10.0 mi West 8.1 mph - N/A   Clear
10:33 PM 50.0 °F 35.6 °F 58% 29.87 in 10.0 mi NW 8.1 mph - N/A   Scattered Clouds
10:53 PM 53.6 °F 33.8 °F 47% 29.88 in 10.0 mi NNW 19.6 mph 29.9 mph N/A   Scattered Clouds
11:13 PM 51.8 °F 35.6 °F 54% 29.90 in 10.0 mi North 15.0 mph 27.6 mph N/A   Scattered Clouds
11:33 PM 50.0 °F 33.8 °F 54% 29.92 in 10.0 mi North 12.7 mph 25.3 mph N/A   Scattered Clouds
11:53 PM 48.2 °F 28.4 °F 46% 29.93 in 10.0 mi North 17.3 mph 29.9 mph N/A   Scattered Clouds